GSAT0218 (GALILEO 22)

Last updated on Thu Oct 16 2025 00:02:34 GMT+0000 (Coordinated Universal Time)

1 43058U 17079D 25287.96957501 -.00000029 00000+0 00000+0 0 9990 2 43058 55.1524 228.2499 0004290 285.9908 73.9424 1.70473777 48831
UTC large
Height (km)
Speed (km/s)
/
Latitude / Longitude
Inclination (degrees)
Orbital Period (minutes)
Azimuth
Elevation
Range (km)
Doppler Factor

Next 0 passes for location: London (51.5072 / 0.1276)

Sorry there are no passes over London.